Location: Wallasey
(53.4265°N, 3.0662°W)
Time: 13:18:53
(UTC+01:00)

NOAA 18 - Pass Details

Date: 19 September 2019
Orbit: 840 x 861 km, 99.1° (Epoch: 19 October)

Event Time Altitude Azimuth Distance (km) Brightness Sun altitude
Exits shadow 20:06:29 - 128° (SE) 2,790 7.3 -7.8°
Reaches altitude 10° 20:07:18 10° 124° (SE) 2,492 7.1 -7.9°
Maximum altitude 20:12:19 36° 60° (ENE) 1,332 5.9 -8.7°
Drops below altitude 10° 20:17:21 10° 355° (N) 2,513 7.9 -9.4°
Sets 20:19:53 0° 348° (NNW) 3,455 8.8 -9.8°
